This demonstration page uses our WeatherBlox Daily Observations layout. Learn more.

Hourly Observations for November 16, 2016

Temp ( °F °C ) Dew Point ( °F °C ) Humidity (%) Winds ( mph kmh ) Pressure ( in mb ) Visibility ( mi km ) Precip ( " mm )
12:15 am 00:15 Clear 45 7 34 1 66 66 undefined N/A 29.91 1013 10 16.09344 0 0
12:35 am 00:35 Clear 41 5 36 2 81 81 undefined N/A 29.91 1013 10 16.09344 0 0
12:55 am 00:55 Clear 41 5 36 2 81 81 undefined N/A 29.91 1013 10 16.09344 0 0
1:15 am 01:15 Clear 41 5 34 1 76 76 undefined N/A 29.91 1013 10 16.09344 0 0
1:35 am 01:35 Clear 39 4 34 1 81 81 undefined N/A 29.91 1013 10 16.09344 0 0
1:55 am 01:55 Clear 41 5 34 1 76 76 undefined N/A 29.91 1013 10 16.09344 0 0
2:15 am 02:15 Clear 41 5 34 1 76 76 undefined N/A 29.91 1013 10 16.09344 0 0
2:35 am 02:35 Clear 37 3 34 1 87 87 undefined N/A 29.91 1013 10 16.09344 0 0
2:55 am 02:55 Clear 36 2 34 1 93 93 undefined N/A 29.91 1013 10 16.09344 0 0
3:15 am 03:15 Clear 37 3 34 1 87 87 undefined N/A 29.91 1013 10 16.09344 0 0
3:35 am 03:35 Clear 39 4 34 1 81 81 undefined N/A 29.91 1013 10 16.09344 0 0
3:55 am 03:55 Clear 37 3 34 1 87 87 undefined N/A 29.91 1013 10 16.09344 0 0
4:15 am 04:15 Clear 34 1 34 1 100 100 undefined N/A 29.91 1013 10 16.09344 0 0
4:35 am 04:35 Clear 36 2 34 1 93 93 undefined N/A 29.91 1013 10 16.09344 0 0
4:55 am 04:55 Clear 36 2 34 1 93 93 undefined N/A 29.91 1013 10 16.09344 0 0
5:15 am 05:15 Clear 36 2 34 1 93 93 undefined N/A 29.91 1013 10 16.09344 0 0
5:35 am 05:35 Clear 36 2 34 1 93 93 undefined N/A 29.91 1013 10 16.09344 0 0
5:55 am 05:55 Clear 34 1 32 0 93 93 undefined N/A 29.91 1013 10 16.09344 0 0
6:15 am 06:15 Partly Cloudy 37 3 34 1 87 87 undefined N/A 29.91 1013 10 16.09344 0 0
6:35 am 06:35 Mostly Cloudy 37 3 34 1 87 87 undefined N/A 29.91 1013 10 16.09344 0 0
6:55 am 06:55 Mostly Cloudy 41 5 34 1 76 76 undefined N/A 29.91 1013 10 16.09344 0 0
7:15 am 07:15 Sunny 37 3 34 1 87 87 undefined N/A 29.91 1013 10 16.09344 0 0
7:35 am 07:35 Partly Cloudy 37 3 36 2 93 93 undefined N/A 29.91 1013 10 16.09344 0 0
7:55 am 07:55 Cloudy 41 5 36 2 81 81 undefined N/A 29.94 1014 10 16.09344 0 0
8:15 am 08:15 Cloudy 43 6 36 2 76 76 undefined N/A 29.94 1014 10 16.09344 0 0
8:35 am 08:35 Cloudy 43 6 36 2 76 76 undefined N/A 29.94 1014 10 16.09344 0 0
8:55 am 08:55 Cloudy 45 7 37 3 76 76 undefined N/A 29.94 1014 10 16.09344 0 0
9:15 am 09:15 Mostly Cloudy 46 8 37 3 71 71 undefined N/A 29.91 1013 10 16.09344 0 0
9:35 am 09:35 Partly Cloudy 52 11 43 6 72 72 undefined N/A 29.88 1012 10 16.09344 0 0
9:55 am 09:55 Partly Cloudy 55 13 39 4 55 55 SW 5 7 29.88 1012 10 16.09344 0 0
10:15 am 10:15 Partly Cloudy 59 15 41 5 51 51 WSW 6 9 29.88 1012 10 16.09344 0 0
10:35 am 10:35 Partly Cloudy 61 16 41 5 48 48 SSW 9 15 29.88 1012 10 16.09344 0 0
10:55 am 10:55 Mostly Cloudy 61 16 43 6 52 52 WSW 8 13 29.88 1012 10 16.09344 0 0
11:15 am 11:15 Cloudy 61 16 43 6 52 52 W 7 11 29.88 1012 10 16.09344 0 0
11:35 am 11:35 Cloudy 63 17 45 7 52 52 W 8 13 29.88 1012 10 16.09344 0 0
11:55 am 11:55 Cloudy 61 16 45 7 55 55 W 12 19 29.88 1012 10 16.09344 0 0
12:15 pm 12:15 Cloudy 63 17 45 7 52 52 W 8 13 29.85 1011 10 16.09344 0 0
12:35 pm 12:35 Mostly Cloudy 63 17 45 7 52 52 WNW 12 19 29.85 1011 10 16.09344 0 0
12:55 pm 12:55 Partly Cloudy 63 17 45 7 52 52 WSW 9 15 29.85 1011 10 16.09344 0.11 2.794
1:15 pm 13:15 Mostly Cloudy 63 17 45 7 52 52 W 12 19 29.85 1011 10 16.09344 0 0
1:35 pm 13:35 Cloudy 63 17 45 7 52 52 W 5 7 29.85 1011 10 16.09344 0 0
1:55 pm 13:55 Cloudy 63 17 45 7 52 52 W 5 7 29.85 1011 10 16.09344 0 0
2:15 pm 14:15 Mostly Cloudy 64 18 45 7 49 49 undefined N/A 29.85 1011 10 16.09344 0 0
2:35 pm 14:35 Mostly Cloudy 63 17 45 7 52 52 W 9 15 29.85 1011 10 16.09344 0 0
2:55 pm 14:55 Mostly Cloudy 63 17 45 7 52 52 WNW 13 20 29.85 1011 10 16.09344 0 0
3:15 pm 15:15 Cloudy with Light Rain 61 16 46 8 59 59 W 6 9 29.85 1011 10 16.09344 0 0
3:35 pm 15:35 Cloudy 61 16 46 8 59 59 W 7 11 29.85 1011 10 16.09344 0 0
3:55 pm 15:55 Cloudy 61 16 46 8 59 59 WNW 7 11 29.88 1012 10 16.09344 0 0
4:15 pm 16:15 Cloudy 61 16 45 7 55 55 NW 6 9 29.88 1012 10 16.09344 0 0
4:35 pm 16:35 Partly Cloudy 59 15 46 8 63 63 NNW 5 7 29.88 1012 10 16.09344 0 0
4:55 pm 16:55 Clear 59 15 46 8 63 63 NNW 6 9 29.88 1012 10 16.09344 0 0
5:15 pm 17:15 Clear 57 14 46 8 67 67 NNW 3 6 29.91 1013 10 16.09344 0 0
5:35 pm 17:35 Clear 54 12 46 8 77 77 Calm 29.91 1013 10 16.09344 0 0
5:55 pm 17:55 Clear 54 12 46 8 77 77 Calm 29.91 1013 10 16.09344 0 0
6:15 pm 18:15 Clear 52 11 45 7 77 77 Calm 29.94 1014 10 16.09344 0 0
6:35 pm 18:35 Clear 52 11 46 8 82 82 NNW 3 6 29.94 1014 10 16.09344 0 0
6:55 pm 18:55 Partly Cloudy 52 11 45 7 77 77 NNW 3 6 29.94 1014 10 16.09344 0 0
7:15 pm 19:15 Partly Cloudy 52 11 45 7 77 77 NNW 6 9 29.94 1014 10 16.09344 0 0
7:35 pm 19:35 Mostly Cloudy 48 9 45 7 87 87 NW 5 7 29.94 1014 10 16.09344 0 0
7:55 pm 19:55 Mostly Cloudy 46 8 45 7 93 93 NW 5 7 30 1016 10 16.09344 0 0
8:15 pm 20:15 Mostly Cloudy 50 10 45 7 82 82 WNW 3 6 29.97 1015 10 16.09344 0 0
8:35 pm 20:35 Cloudy 50 10 45 7 82 82 NNW 3 6 29.97 1015 10 16.09344 0 0
8:55 pm 20:55 Mostly Cloudy 52 11 45 7 77 77 N 5 7 29.97 1015 10 16.09344 0 0
9:15 pm 21:15 Mostly Cloudy 46 8 43 6 87 87 NW 6 9 30 1016 10 16.09344 0 0
9:35 pm 21:35 Mostly Cloudy 45 7 43 6 93 93 NW 5 7 30 1016 10 16.09344 0 0
9:55 pm 21:55 Cloudy 45 7 43 6 93 93 NW 6 9 30 1016 10 16.09344 0 0
10:15 pm 22:15 Partly Cloudy 45 7 43 6 93 93 WNW 7 11 30 1016 10 16.09344 0 0
10:35 pm 22:35 Clear 46 8 41 5 82 82 NW 8 13 30 1016 10 16.09344 0 0
10:55 pm 22:55 Clear 45 7 41 5 87 87 WNW 10 17 30 1016 10 16.09344 0 0
11:15 pm 23:15 Partly Cloudy 50 10 43 6 76 76 WNW 8 13 30 1016 10 16.09344 0 0
11:35 pm 23:35 Clear 46 8 43 6 87 87 WSW 3 6 30.03 1017 10 16.09344 0 0
11:55 pm 23:55 Clear 46 8 41 5 82 82 W 3 6 30.03 1017 10 16.09344 0 0

Powered by AerisWeather